カタログに戻る

STARLINK-33772

運用中通信VLEO
NORAD 63656·PAYLOAD·🇺🇸 United States

打ち上げ Apr 25, 2025 から Cape Canaveral Space Force Station

Loading…

次のパス (今後24時間)

TLE

最新Source: CelesTrak SupGP

元期: Sep 15, 2026, 03:00 UTC

1 63656C 25083Y   26258.12548611  .00010572  00000+0  38286-3 0  2587
2 63656  43.0023  15.3429 0001388 266.9809 282.2262 15.27577119    14

AllMySatでSTARLINK-33772をリアルタイム追跡

Download on the App Store